SL-16 DEB, 29105

Orbit data source: Space-Track

SL-16 DEB, 29105 is space debris in LEO originally from a launch on Thu, 10 Jun 2004 UTC launched from the Tyuratam Missile And Space Complex (TTMTR). Debris objects in space refer to the collection of defunct objects orbiting the Earth. Examples of debris include non-operational satellites, rocket bodies, and fragments generated from explosions, collisions, or faulty payload assembly.

Loading next visibility...
Identifier
29105, 2004-021G
Orbit
LEO
Country
Flag of CISCIS
Related business
Manufacturer
Unknown
Mission
Spacecraft
Bus & Motor
Unknown
Mass
Unknown
Launch date (UTC)
2004-06-10 (22 years ago)
Launch vehicle
Unknown
Launch site
Tyuratam Missile And Space Complex (TTMTR)
Object type
Payload
Rocket body
Debris
Shape & HBR
Unknown shape, 0.1 m
Radar Cross Section
Small (<0.1 m²)

Expand to show TLE details & history
Last TLE update: 1 day ago

TLE from 1 day ago
0 SL-16 DEB
1 29105U 04021G   26118.44848404  .00004044  00000-0  24842-2 0  9992
2 29105  70.9215  15.7248 0168547 320.3778  38.5114 13.99434161647012
Epoch: 2026-04-28T10:45Z
TLE epoch observation values (Epoch: 2026-04-28T10:45:49.021Z)
Latitude
-0.00008°
Longitude
-2.15313°
Altitude
803.006 km
Speed
7.501 km/s
True Right ascension
01h 02m 53s
True Declination
0° 00' 00"
Sunlit
Object was in daylight at epoch
Visualization orbit readout
Latitude
Unknown
Longitude
Unknown
Altitude
Unknown
Speed
Unknown
Apparent Right ascension
Unknown
Apparent Declination
Unknown
Sunlit
N/A
Visualization observer readout
Local Sidereal Time
23:08:07
Azimuth
Unknown
Elevation
Unknown
Doppler factor
Unknown
Orbital elements
Apogee altitude
1,016.267 km
Perigee altitude
771.138 km
Semi-major axis
7,271.839 km
Eccentricity
0.01685
Inclination
70.9215°
RAAN
15.7248°
Arg. of periapsis
320.3778°
True anomaly
39.73408°
Mean anomaly
38.5114°
Eccentric anomaly
39.12072°
Mean motion
3.50007 °/min
Orbital period
102.86 mins
BSTAR
0.0024842
Loading maneuver chart data...
Computing Atmospheric mass density...
Loading historical data...
Loading historical data...
Loading historical data...
Loading historical data...
Loading historical data...
Loading historical data...
Loading historical data...

Documentation

Showing up to 5 results
|